Location: Biltmore Gardens
(41.6070°N, 83.4666°W)
Time: 05:21:35
(UTC+00:00)

SR - All Passes

Search period start: 14 April 2021 00:00
Search period end: 24 April 2021 00:00
Orbit: 573 x 882 km, 66.7° (Epoch: 12 April)

Date Brightness Start Highest point End Pass type
(mag) Time Alt. Az. Time Alt. Az. Time Alt. Az.
14 Apr - 00:18:01 10° NW 00:23:13 35° WSW 00:28:05 10° S daylight
14 Apr - 13:06:09 10° SSE 13:10:27 24° ESE 13:14:57 10° NE daylight
14 Apr - 14:46:40 10° SW 14:52:07 55° NW 14:57:56 10° NNE daylight
14 Apr - 16:32:56 10° WNW 16:35:38 13° NNW 16:38:21 10° N daylight
14 Apr - 21:46:18 10° N 21:50:56 23° NE 21:55:22 10° E daylight
14 Apr - 23:27:50 10° NW 23:33:38 69° WSW 23:39:01 10° SSE daylight
15 Apr - 12:19:27 10° ESE 12:21:11 11° E 12:22:57 10° E daylight
15 Apr - 13:56:44 10° SSW 14:02:16 82° ESE 14:08:10 10° NNE daylight
15 Apr - 15:40:55 10° W 15:45:09 21° NW 15:49:30 10° N daylight
15 Apr - 20:57:17 10° N 21:00:30 15° NE 21:03:38 10° ENE daylight
15 Apr - 22:38:01 10° NNW 22:43:51 65° ENE 22:49:15 10° SE daylight
16 Apr - 00:21:24 10° WNW 00:25:19 19° WSW 00:29:03 10° SSW daylight
16 Apr - 13:07:26 10° S 13:12:37 43° ESE 13:18:07 10° NE daylight
16 Apr - 14:49:47 10° WSW 14:54:52 33° NW 15:00:11 10° NNE daylight
16 Apr - 21:48:26 10° NNW 21:53:49 36° NE 21:58:53 10° ESE daylight
16 Apr - 23:30:40 10° NW 23:35:55 37° WSW 23:40:51 10° S daylight
17 Apr - 12:19:00 10° SSE 12:23:11 22° ESE 12:27:33 10° ENE daylight
17 Apr - 13:59:18 10° SW 14:04:48 58° NW 14:10:38 10° NNE daylight
17 Apr - 15:45:20 10° WNW 15:48:14 14° NW 15:51:12 10° N daylight
17 Apr - 20:59:05 10° N 21:03:34 22° NE 21:07:52 10° E daylight
17 Apr - 22:40:32 10° NNW 22:46:20 73° WSW 22:51:42 10° SSE daylight
18 Apr - 11:32:50 10° ESE 11:33:56 11° E 11:35:03 10° E daylight
18 Apr - 13:09:24 10° SSW 13:14:57 78° ESE 13:20:52 10° NNE daylight
18 Apr - 14:53:25 10° W 14:57:46 22° NW 15:02:16 10° N daylight
18 Apr - 20:10:07 10° N 20:13:07 14° NE 20:16:02 10° ENE daylight
18 Apr - 21:50:44 10° NNW 21:56:30 61° NE 22:01:53 10° SE daylight
18 Apr - 23:33:58 10° WNW 23:38:03 20° WSW 23:41:55 10° SSW daylight
19 Apr - 12:20:12 10° S 12:25:20 40° ESE 12:30:47 10° NE daylight
19 Apr - 14:02:20 10° WSW 14:07:31 35° NW 14:12:55 10° NNE daylight
19 Apr - 21:01:10 10° NNW 21:06:28 34° NE 21:11:27 10° ESE daylight
19 Apr - 22:43:19 10° NW 22:48:38 40° WSW 22:53:36 10° S daylight
20 Apr - 11:31:52 10° SSE 11:35:55 21° ESE 11:40:08 10° ENE daylight
20 Apr - 13:11:55 10° SW 13:17:28 62° WNW 13:23:21 10° NNE daylight
20 Apr - 14:57:43 10° WNW 15:00:51 15° NW 15:04:01 10° N daylight
20 Apr - 20:11:50 10° N 20:16:12 21° NE 20:20:22 10° E daylight
20 Apr - 21:53:14 10° NNW 21:59:02 78° WSW 22:04:23 10° SSE daylight
20 Apr - 23:39:36 10° W 23:40:00 10° W 23:40:24 10° WSW daylight
21 Apr - 12:22:06 10° SSW 12:27:39 73° ESE 12:33:33 10° NNE daylight
21 Apr - 14:05:55 10° W 14:10:24 23° NW 14:15:01 10° N daylight
21 Apr - 19:22:57 10° N 19:25:43 13° NNE 19:28:25 10° ENE daylight
21 Apr - 21:03:27 10° NNW 21:09:11 57° NE 21:14:30 10° SE daylight
21 Apr - 22:46:33 10° WNW 22:50:46 22° WSW 22:54:46 10° SSW daylight
22 Apr - 11:32:57 10° S 11:38:03 38° ESE 11:43:25 10° NE daylight
22 Apr - 13:14:55 10° WSW 13:20:10 37° NW 13:25:39 10° NNE daylight
22 Apr - 20:13:55 10° NNW 20:19:07 32° NE 20:24:00 10° ESE daylight
22 Apr - 21:55:58 10° NW 22:01:21 43° WSW 22:06:20 10° S daylight
23 Apr - 10:44:44 10° SSE 10:48:39 20° ESE 10:52:42 10° ENE daylight
23 Apr - 12:24:33 10° SW 12:30:09 66° WNW 12:36:04 10° NNE daylight
23 Apr - 14:10:08 10° WNW 14:13:27 15° NW 14:16:50 10° N daylight
23 Apr - 19:24:37 10° N 19:28:49 20° NE 19:32:51 10° E daylight
23 Apr - 21:05:55 10° NNW 21:11:43 83° WSW 21:17:03 10° SSE daylight
23 Apr - 22:51:21 10° W 22:52:45 11° W 22:54:07 10° WSW daylight
